Change the Weather History Date:

Sunday, September 2, 2012

  Actual Average Record
Temperature  
Mean Temperature 80 °F 70 °F  
Max Temperature 95 °F 84 °F 106 °F (1922)
Min Temperature 64 °F 55 °F 40 °F (1952)
Degree Days  
Heating Degree Days 0 1  
Month to date heating degree days 0 2  
Cooling Degree Days 15 6  
Month to date cooling degree days 27 12  
Year to date cooling degree days 1299 878  
Growing Degree Days 30 (Base 50)    
Moisture  
Dew Point 47 °F    
Average Humidity 36    
Maximum Humidity 56    
Minimum Humidity 15    
Precipitation  
Precipitation T in 0.05 in 5.73 in (1942)
Sea Level Pressure  
Sea Level Pressure 29.88 in    
Wind  
Wind Speed 7 mph (NNE)    
Max Wind Speed 23 mph    
Max Gust Speed 29 mph    
Visibility 10 miles    
Events      
T = Trace of Precipitation, MM = Missing Value Source: NWS Daily Summary

Daily Weather History Graph

Daily Weather History Graph

Search for Another Location

Airport or City:

Trip Planner

Search our weather history database for the weather conditions in past years. The results will help you decide how hot, cold, wet, or windy it might be!

Date:

Astronomy

Sep. 02, 2012 Rise Set
Actual Time 6:15 AM MDT 7:15 PM MDT
Civil Twilight 5:47 AM MDT 7:43 PM MDT
Nautical Twilight 5:13 AM MDT 8:17 PM MDT
Astronomical Twilight 4:39 AM MDT 8:51 PM MDT
Moon 8:03 PM MDT 8:26 AM MDT
Length of Visible Light 13h 56m
Length of Day
13h 00m
Waning Gibbous, 95% of the Moon is Illuminated
Sep 2
Waning Gibbous
Sep 8
Last Quarter
Sep 15
New
Sep 22
First Quarter
Sep 29
Full

Hourly Weather History & Observations

Time (MDT) Temp. Dew Point Humidity Pressure Visibility Wind Dir Wind Speed Gust Speed Precip Events Conditions
12:53 AM 73.9 °F 41.0 °F 30% 29.86 in 10.0 mi SSE 13.8 mph - N/A   Clear
1:53 AM 73.9 °F 46.0 °F 37% 29.84 in 10.0 mi South 13.8 mph - N/A   Clear
2:53 AM 73.9 °F 48.0 °F 40% 29.83 in 10.0 mi SSE 15.0 mph 21.9 mph 0.00 in   Clear
3:53 AM 70.0 °F 48.9 °F 47% 29.86 in 10.0 mi WNW 4.6 mph - N/A   Clear
4:53 AM 66.0 °F 48.9 °F 54% 29.85 in 10.0 mi SE 5.8 mph - N/A   Clear
5:53 AM 66.9 °F 48.9 °F 52% 29.87 in 10.0 mi Calm Calm - N/A   Clear
6:53 AM 64.0 °F 48.9 °F 58% 29.88 in 10.0 mi Calm Calm - N/A   Clear
7:53 AM 71.1 °F 48.0 °F 44% 29.89 in 10.0 mi Calm Calm - N/A   Clear
8:53 AM 75.0 °F 46.0 °F 36% 29.91 in 10.0 mi NW 9.2 mph - N/A   Clear
9:53 AM 84.9 °F 48.9 °F 29% 29.92 in 10.0 mi NNW 15.0 mph 27.6 mph N/A   Clear
10:53 AM 84.9 °F 48.9 °F 29% 29.93 in 10.0 mi NNW 11.5 mph - N/A   Clear
11:53 AM 88.0 °F 48.9 °F 26% 29.91 in 10.0 mi North 15.0 mph 19.6 mph N/A   Clear
12:53 PM 91.0 °F 46.9 °F 22% 29.90 in 10.0 mi North 13.8 mph - N/A   Clear
1:53 PM 93.0 °F 46.0 °F 20% 29.88 in 10.0 mi North 12.7 mph - N/A   Clear
2:53 PM 93.0 °F 44.1 °F 18% 29.87 in 10.0 mi NE 8.1 mph 19.6 mph N/A   Clear
3:53 PM 95.0 °F 41.0 °F 15% 29.86 in 10.0 mi NNE 11.5 mph - N/A   Clear
4:53 PM 95.0 °F 43.0 °F 17% 29.87 in 10.0 mi NE 8.1 mph - N/A   Clear
5:53 PM 90.0 °F 44.1 °F 20% 29.86 in 10.0 mi NE 6.9 mph - N/A   Clear
6:53 PM 84.0 °F 46.9 °F 27% 29.88 in 10.0 mi ESE 5.8 mph - N/A   Clear
7:53 PM 75.0 °F 46.9 °F 37% 29.89 in 10.0 mi East 6.9 mph - N/A   Clear
8:53 PM 75.9 °F 48.0 °F 37% 29.91 in 10.0 mi Calm Calm - N/A   Clear
9:53 PM 73.0 °F 48.9 °F 42% 29.90 in 10.0 mi Calm Calm - N/A   Clear
10:53 PM 73.0 °F 53.1 °F 49% 29.90 in 10.0 mi NNW 3.5 mph - N/A   Clear
11:53 PM 73.9 °F 51.1 °F 45% 29.90 in 10.0 mi WNW 4.6 mph - N/A   Mostly Cloudy